Regional Weather Roundup
Issued by NWS

Home | Current Version | Previous Version | Graphics & Text | Print | Product List | Glossary On
Versions: 1 2 3 4 5 6 7 8 9 10 11 12 13 14 15 16 17 18 19 20 21 22 23 24 25 26 27 28 29 30 31 32 33 34 35 36 37 38 39 40 41 42 43 44 45 46 47 48 49 50
000
ASUS45 KABQ 291701
RWRNM
WEATHER ROUNDUP FOR NEW MEXICO
NATIONAL WEATHER SERVICE ALBUQUERQUE NM
1100 AM MDT FRI AUG 29 2014

NOTE: "FAIR" MEANS FEW OR NO CLOUDS BELOW 12,000 FEET AGL WITH NO
       SIGNIFICANT WEATHER OR OBSTRUCTIONS TO VISION.

      THIS PRODUCT IS RELEASED AS TWO VERSIONS.  ONE VERSION NEAR
      THE TOP OF THE HOUR CONTAINING PRELIMINARY DATA FROM ALBUQUERQUE
      AND OTHER STATIONS.  A FINAL VERSION WITH ADDITIONAL DATA IS
      ISSUED ABOUT 10 MINUTES AFTER THE HOUR.

NMZ501-503-504-510>518-291800-
NORTHWEST PLATEAU/NORTHCENTRAL MOUNTAINS

CITY           SKY/WX    TMP DP  RH WIND       PRES   REMARKS
FARMINGTON     SUNNY     70  39  32 E3        30.20S
LOS ALAMOS     SUNNY     66  40  39 N10G17    30.31S
SANTA FE       SUNNY     71  42  35 NE5       30.24F HAZE
ANGEL FIRE     FAIR      63  37  37 CALM      30.37S

$$
NMZ402-403-502-505>509-291800-
WESTCENTRAL MOUNTAINS/SOUTHWEST MOUNTAINS

CITY           SKY/WX    TMP DP  RH WIND       PRES   REMARKS
GALLUP         SUNNY     73  36  25 VRB3      30.26F
SILVER CITY    SUNNY     82  39  21 SE8       30.18R

$$
NMZ407-409-411-412-291800-
SOUTHERN DESERTS

CITY           SKY/WX    TMP DP  RH WIND       PRES   REMARKS
LORDSBURG      FAIR      82  43  24 E5        30.08F
DEMING         SUNNY     87  42  20 NE14G21   30.08S
LAS CRUCES     MOSUNNY   85  42  22 E8        30.10S
HOLLOMAN AFB   SUNNY     84  48  28 SE3       30.06S
ALAMOGORDO     SUNNY     81  46  30 S6        30.09S
T OR C         SUNNY     80  47  31 N12       30.13S

$$
NMZ519>523-291800-
CENTRAL VALLEYS/CENTRAL HIGHLANDS

CITY           SKY/WX    TMP DP  RH WIND       PRES   REMARKS
ALBUQUERQUE    MOSUNNY   75  45  34 VRB5      30.19S
DOUBLE EAGLE   MOSUNNY   72  45  37 CALM      30.23R
CLINES CORNERS SUNNY     70  41  34 VRB3      30.27S
BELEN          FAIR      76  43  30 NW8       30.19R
SOCORRO        FAIR      78  46  32 N6        30.15S

$$
NMZ524>526-539-540-291800-
SOUTHCENTRAL MOUNTAINS

CITY           SKY/WX    TMP DP  RH WIND       PRES   REMARKS
RUIDOSO        NOT AVBL

$$
NMZ527>531-291800-
NORTHEAST HIGHLANDS/NORTHEAST PLAINS

CITY           SKY/WX    TMP DP  RH WIND       PRES   REMARKS
LAS VEGAS      SUNNY     71  41  33 S8        30.27S
RATON          MOSUNNY   75  38  26 VRB7G17   30.21S
CLAYTON        SUNNY     80  42  25 NW15      30.12R

$$
NMZ532>537-291800-
EASTCENTRAL PLAINS

CITY           SKY/WX    TMP DP  RH WIND       PRES   REMARKS
TUCUMCARI      SUNNY     81  48  31 CALM      30.09S
CANNON AFB     SUNNY     79  49  34 N9        30.10F
CLOVIS AIRPORT   N/A     81  48  32 N7        30.12F

$$
NMZ028-029-538-291800-
SOUTHEAST PLAINS

CITY           SKY/WX    TMP DP  RH WIND       PRES   REMARKS
ROSWELL        SUNNY     78  56  46 N7        30.08S
CARLSBAD       SUNNY     81  57  43 N20       30.04S
HOBBS          MOSUNNY   77  63  61 N7        30.07R


$$



USA.gov is the U.S. government's official web portal to all federal, state and local government web resources and services.